User: anonymous   Login
Location: Andrest
(43.3200°N, 0.0641°E)
Time: 21:19:21
(UTC+00:00)
Language:

H-2A R/B - Orbit

View from above orbital plane
View from above orbital plane
View from above satellite
View from above satellite

Ground track
Ground track

The orbit data is extracted from the following two-line orbital elements,

1 38341U 12025E   21055.20073104  .00000382  00000-0  52002-4 0  9995
2 38341  98.5216 232.9545 0056175 142.3977 218.1183 14.84173571474706
Epoch (UTC): 24 February 2021 04:49:03
Eccentricity: 0.0056175
inclination: 98.5216°
perigee height: 577 km
apogee height: 655 km
right ascension of ascending node: 232.9545°
argument of perigee: 142.3977°
revolutions per day: 14.84173571
mean anomaly at epoch: 218.1183°
orbit number at epoch: 47470

The dashed part of the orbit path shows where the satellite is in the earth's shadow,  

DLR